Temperature
31 30 30 31 31 31 31 31 32 33 34 32 31 32 32 33 32 31 30 30 28 27 26 26 24 23 23 23 22 21 21 20 20 20 20 20 20 20 20 20 20 19 19 18
30 29 31 31 31 31 31 31 31 32 33 32 31 31 32 32 31 30 29 27 25 24 22 21 20 20 20 19 20 20 20 20 20 20 20 20 21 21 20 20 20 19 19 18
29 29 31 31 31 30 30 30 30 30 31 31 31 30 31 31 30 28 25 22 20 19 19 18 18 18 18 18 18 19 19 19 19 19 20 20 20 20 20 20 20 19 18 18
30 31 31 30 30 30 29 30 30 30 29 29 30 29 30 30 28 25 23 21 19 18 17 17 17 17 17 18 18 19 19 19 19 19 19 19 19 20 20 20 20 19 19 18
29 30 30 30 30 30 30 31 30 30 29 29 29 28 29 29 26 24 22 20 19 17 16 16 16 16 17 17 18 18 18 18 18 18 19 19 19 19 19 19 19 19 18 18
29 31 31 31 31 31 31 30 30 29 28 25 24 24 26 27 25 23 22 20 19 18 17 16 16 15 15 16 16 16 17 17 17 18 18 18 18 18 18 18 18 18 18 18
27 29 31 31 30 30 30 28 27 26 24 22 21 22 24 25 25 23 22 20 19 18 17 16 16 15 15 15 15 15 16 16 16 16 16 16 16 16 17 17 17 17 17 17
26 26 29 31 30 29 29 29 27 26 26 26 24 24 23 23 23 22 21 20 20 19 18 17 16 15 15 15 14 15 15 15 15 16 15 15 15 15 15 16 16 16 16 17
28 28 30 31 31 30 29 29 29 28 27 27 27 24 22 22 21 21 21 20 19 19 18 18 17 16 15 15 14 14 14 15 15 15 15 15 15 15 15 15 15 15 15 15
30 28 30 31 31 31 30 29 28 27 25 25 27 24 22 20 20 20 20 20 19 18 18 17 17 16 15 15 14 14 13 13 13 13 14 13 14 14 14 14 14 14 15 15
30 28 29 30 29 28 29 29 28 27 26 25 24 23 22 20 19 20 20 19 18 18 17 16 16 16 15 15 14 14 13 12 12 12 12 12 12 12 12 13 13 13 13 14
29 28 27 28 29 29 29 28 28 26 25 25 25 21 21 20 20 19 19 18 18 17 16 16 15 15 14 14 13 13 12 12 11 11 11 11 11 11 11 11 11 12 12 12
27 26 25 27 27 27 28 28 28 27 26 25 23 21 20 20 20 19 19 18 17 17 16 16 15 15 14 13 13 12 12 11 11 11 11 10 10 10 10 10 10 11 11 11
26 26 26 25 27 28 28 28 28 26 25 24 23 21 21 20 20 19 18 18 17 17 16 16 16 15 14 13 13 12 12 12 11 11 11 10 10 10 10 10 10 10 10 10
28 26 26 27 28 28 28 27 27 25 24 23 23 22 21 20 20 19 18 18 17 17 17 16 15 15 14 14 13 13 12 12 11 11 11 11 10 10 10 10 9 9 9 9
27 26 26 26 28 28 27 25 25 24 23 23 22 22 22 20 19 18 18 17 17 17 16 15 15 14 13 13 13 12 12 12 11 11 11 11 10 10 10 10 9 9 9 9
26 24 24 25 27 27 23 22 22 22 22 22 21 21 21 19 18 18 17 17 17 16 15 14 14 13 13 12 12 12 11 11 11 11 11 10 10 10 10 10 10 9 9 9
25 24 24 25 26 23 21 23 22 21 22 22 21 20 19 18 18 17 17 16 15 14 14 13 13 13 12 12 12 11 11 11 10 10 10 10 10 10 10 10 9 9 9 9
26 25 24 25 24 23 22 22 21 20 20 20 19 18 18 17 16 16 16 15 14 14 13 13 12 12 12 11 11 11 10 10 10 9 9 9 9 9 9 9 9 9 9 9
27 26 25 24 23 22 21 22 21 21 20 19 18 17 17 16 15 15 15 14 14 13 13 12 12 12 11 11 11 10 10 9 9 9 8 8 8 8 8 8 8 8 8 8
25 25 24 23 23 23 21 21 21 18 18 17 17 16 15 15 14 14 14 13 13 13 12 12 12 11 11 10 10 9 9 8 8 8 7 7 7 7 7 7 8 8 8 8
24 23 22 22 21 21 21 20 19 18 17 16 16 15 15 14 14 14 13 13 13 12 12 12 11 10 10 9 8 8 7 7 7 6 6 6 6 6 7 7 7 7 7 7
24 21 21 21 21 21 20 19 18 17 16 15 15 14 14 14 13 13 13 13 12 12 11 11 10 9 8 7 7 6 6 5 5 5 5 5 5 6 6 6 6 7 7 7
23 22 22 21 22 20 19 18 17 16 15 15 14 14 14 13 13 13 13 12 12 11 10 9 8 7 6 5 5 5 5 4 4 4 5 5 5 5 5 6 6 6 7 7
22 23 21 21 20 18 18 17 16 15 15 14 14 14 13 13 13 13 12 11 10 9 8 7 5 5 4 4 4 4 4 4 4 4 4 4 5 5 5 6 6 6 7 7
22 21 20 19 18 17 17 16 15 15 14 14 13 13 13 13 12 12 11 10 9 7 6 5 4 4 4 4 4 4 4 4 4 4 4 4 5 5 5 6 6 6 7 7
Wind_Speed
8 9 7 6 8 12 14 14 14 10 2 2 8 13 14 10 7 7 6 4 0 3 4 1 2 3 1 5 9 9 8 7 5 5 5 5 4 3 3 3 5 5 2 2
4 7 8 6 6 9 11 11 12 11 9 8 10 13 14 12 9 4 4 7 8 10 14 17 17 13 14 12 7 6 8 6 4 3 2 2 2 1 1 2 4 4 3 1
1 5 6 8 8 9 10 11 11 11 11 12 15 18 15 12 3 8 15 19 20 18 15 13 12 13 15 15 14 8 5 3 2 3 2 2 2 1 2 3 4 5 3 2
6 4 6 9 8 10 9 8 11 12 13 14 16 14 7 2 9 13 15 17 17 17 14 12 12 11 9 10 9 10 8 4 3 1 2 3 3 3 2 1 2 5 5 4
7 8 8 9 7 8 10 11 12 15 16 17 17 14 2 9 10 13 14 16 17 17 16 15 15 12 11 11 10 10 10 10 9 7 6 5 5 5 4 3 1 3 4 6
16 11 7 6 7 7 10 13 15 15 11 11 13 13 4 4 10 11 12 14 15 16 16 16 15 14 12 12 11 11 11 11 11 11 9 8 8 8 8 8 7 4 4 5
12 10 7 6 7 7 10 12 11 10 4 4 7 9 0 7 11 13 13 13 13 14 14 14 14 13 12 13 13 12 12 12 12 13 12 10 9 8 7 7 7 7 5 4
5 6 7 6 6 8 10 11 10 14 15 8 10 6 7 10 12 13 12 11 11 12 11 11 11 11 11 11 11 10 10 9 9 9 9 9 9 8 7 8 8 7 6 5
6 7 9 9 6 6 7 9 15 15 15 15 5 7 7 9 8 8 9 9 10 10 10 10 9 9 8 8 7 7 6 6 7 7 6 6 7 7 8 9 8 7 7 8
10 13 13 11 9 6 6 9 8 8 11 13 14 3 3 8 5 4 5 7 8 9 10 11 10 9 8 7 5 4 4 4 5 6 6 7 6 6 7 7 8 8 8 8
14 12 13 11 7 9 8 9 8 8 9 12 15 5 7 7 4 3 5 5 7 9 11 11 12 12 11 10 8 6 6 6 6 6 6 7 7 8 8 7 7 7 8 8
12 11 12 13 10 10 10 8 7 7 9 11 13 3 6 4 4 3 5 7 8 10 12 13 14 13 12 12 11 10 9 8 8 7 7 7 7 8 9 9 8 8 9 9
9 7 11 7 3 4 8 8 8 9 10 11 12 2 3 1 1 3 7 10 12 13 14 15 14 12 12 11 10 10 11 11 10 9 8 8 9 9 9 10 9 9 10 10
2 7 11 15 16 15 12 10 8 8 8 11 14 7 2 3 6 8 11 13 15 16 16 17 13 10 9 9 9 10 11 11 11 10 10 9 10 10 10 10 10 10 10 10
6 10 14 17 18 16 13 10 10 10 11 11 15 14 9 5 8 11 14 16 18 21 21 16 12 10 10 10 9 10 10 9 10 10 10 10 10 10 10 11 11 11 11 13
10 11 15 17 16 13 8 11 11 10 12 14 16 17 11 8 10 13 17 20 24 23 19 17 16 14 13 12 12 12 11 10 10 11 11 10 10 10 10 10 11 11 11 12
10 12 13 14 15 11 7 11 11 12 13 15 19 18 15 15 16 18 19 24 24 19 20 21 19 15 12 13 11 11 11 10 10 10 11 11 11 11 10 12 11 10 10 11
6 9 7 12 13 7 6 7 10 13 15 19 16 16 18 20 21 20 20 19 20 24 24 21 19 18 17 15 15 12 14 12 12 12 12 11 11 12 11 10 10 10 9 9
3 5 8 8 13 5 5 8 12 15 19 13 16 20 23 24 25 22 20 23 23 23 19 18 20 22 18 17 16 14 14 14 14 14 13 12 12 12 11 11 10 9 9 9
9 9 8 9 13 11 6 11 16 16 13 16 22 24 25 26 24 21 24 25 24 22 19 19 21 20 16 15 14 14 17 16 16 15 13 13 13 13 13 12 11 10 9 9
11 11 10 11 13 5 8 16 18 13 14 21 23 24 25 23 22 24 27 25 22 21 21 19 18 16 13 13 13 15 16 17 16 15 14 14 13 13 13 12 11 10 11 11
7 8 8 9 10 6 13 15 13 14 17 21 23 23 24 25 26 27 26 24 23 23 23 21 16 15 13 13 14 16 16 16 15 16 16 15 14 16 16 11 11 11 11 11
5 6 6 6 8 10 12 13 15 17 19 20 22 24 25 26 28 28 26 23 23 23 21 20 19 19 17 16 15 18 18 17 17 17 17 16 16 14 14 13 12 11 10 11
5 2 6 8 10 14 15 16 18 19 20 22 23 24 25 27 28 28 25 23 22 22 22 21 22 23 22 21 19 18 18 17 17 18 17 15 14 14 13 11 11 11 11 10
2 6 8 11 13 15 14 17 19 20 21 22 23 24 24 27 27 26 23 22 22 22 21 22 22 23 25 23 21 20 19 17 17 17 15 14 13 13 12 11 10 11 10 9
4 5 7 9 12 14 17 18 20 21 22 23 24 25 25 25 26 26 24 22 22 23 23 23 24 24 24 23 23 21 19 16 15 14 13 11 10 10 10 10 10 12 12 10
Wind_Direction
255 255 281 331 332 320 312 311 312 316 21 238 268 286 292 294 295 297 312 325 221 210 216 155 47 4 34 133 142 149 145 140 160 173 177 183 174 187 175 159 125 112 97 15
294 317 329 338 307 292 291 298 301 307 317 303 286 278 280 281 269 284 340 15 26 39 30 27 25 21 24 15 50 97 118 144 184 164 164 147 114 168 167 107 116 147 170 160
253 231 287 292 295 301 307 318 319 318 313 294 280 271 263 260 269 65 51 50 48 51 55 45 35 25 28 25 26 20 66 118 231 149 195 213 141 219 242 191 176 160 142 155
311 303 302 301 309 304 305 320 315 302 291 282 280 281 268 185 84 67 58 56 59 57 57 61 59 55 42 43 37 22 19 31 7 354 319 311 282 262 259 219 178 146 160 192
302 297 296 294 303 303 304 305 292 284 280 279 280 276 233 113 95 70 61 59 59 62 56 54 57 56 48 46 47 38 30 21 6 2 356 334 306 302 305 316 218 161 198 198
307 293 283 294 299 300 305 300 289 279 283 289 317 313 237 136 117 102 79 67 62 62 62 59 57 56 53 50 48 46 41 35 23 16 6 353 333 322 317 317 311 285 249 217
291 303 291 278 301 326 321 307 301 301 291 239 235 260 185 87 88 89 80 70 65 62 61 58 54 51 50 48 47 44 40 34 30 28 16 7 350 336 321 311 298 286 275 258
313 303 281 292 319 323 313 303 301 309 311 302 213 217 107 84 81 82 78 66 56 52 52 53 52 49 44 43 40 38 36 30 25 28 16 13 8 355 346 344 327 312 304 302
310 307 300 304 291 290 304 320 324 316 308 309 304 104 101 90 81 73 67 54 41 31 26 27 29 31 30 28 32 29 25 16 8 5 356 358 3 353 347 337 330 328 328 316
316 315 314 310 297 280 276 306 316 320 320 317 321 68 158 140 121 81 50 33 20 7 3 3 358 356 356 348 350 357 351 343 334 331 331 332 340 330 327 326 332 332 330 324
326 316 309 315 326 325 311 309 320 318 318 317 315 5 65 89 74 46 38 20 359 347 342 339 335 333 329 326 329 336 337 332 325 322 320 319 317 317 316 309 311 317 318 318
342 332 321 316 339 346 321 320 321 316 314 308 308 42 65 76 71 31 344 334 332 326 321 319 318 317 315 316 320 321 322 316 309 305 301 299 300 302 301 301 306 309 307 305
346 329 314 322 357 298 290 302 322 325 317 316 323 5 146 163 350 331 324 326 323 317 313 308 303 299 296 294 292 290 289 285 279 276 273 274 275 278 281 284 287 289 290 292
296 301 302 311 317 322 315 323 346 347 334 328 336 352 286 287 311 325 326 320 315 313 311 307 303 297 293 288 281 276 275 272 274 268 264 261 262 263 264 267 270 273 276 279
335 316 323 316 313 315 319 342 2 1 349 333 331 329 323 312 321 322 319 318 317 315 311 311 316 320 315 307 297 292 285 279 277 273 269 264 258 256 257 259 260 262 265 271
344 323 315 308 310 313 355 27 13 359 347 336 325 320 336 332 326 322 322 322 317 314 320 327 325 319 314 310 305 299 292 286 276 271 271 270 264 262 260 259 259 258 258 260
349 341 325 311 315 316 45 26 10 351 343 336 320 325 344 339 330 326 327 318 314 329 330 323 318 313 306 301 295 289 290 289 286 281 280 275 272 270 265 269 267 263 263 264
3 341 316 308 325 356 68 32 6 341 331 330 338 353 343 330 326 324 315 319 335 328 320 316 313 310 304 302 300 297 298 294 290 285 283 280 275 275 271 265 263 263 263 265
12 332 317 328 335 355 93 30 359 335 320 8 356 338 331 329 321 314 326 333 323 315 313 311 308 305 301 299 298 294 293 292 289 287 284 284 281 279 275 271 268 267 266 265
360 330 306 329 330 339 46 5 349 325 304 8 346 335 331 327 319 320 326 319 315 315 311 305 303 300 297 297 297 293 291 289 286 286 285 284 280 277 275 272 270 271 268 266
344 338 345 339 325 21 17 350 345 331 328 337 332 329 326 323 315 313 316 316 314 310 308 306 303 301 300 298 294 290 290 287 288 289 287 285 280 276 273 269 266 265 265 266
345 351 354 336 328 357 358 348 346 326 328 330 329 326 322 317 315 315 315 314 313 312 311 311 310 307 307 308 305 300 296 295 294 291 287 282 278 276 273 265 263 261 261 262
32 42 336 334 313 333 351 343 342 341 333 329 326 323 321 317 317 317 316 315 315 316 318 320 320 316 314 312 308 301 298 296 291 286 280 277 275 271 268 265 262 260 256 254
96 29 320 319 320 349 345 345 343 338 330 327 324 322 320 318 318 318 318 320 322 325 328 328 324 319 315 311 305 297 295 292 287 281 277 274 272 269 264 259 255 253 252 249
351 346 335 315 342 337 335 341 335 330 329 325 324 322 321 321 320 322 324 327 330 331 331 328 324 317 312 309 303 298 293 288 283 279 275 270 266 264 262 256 249 247 246 247
49 25 343 327 337 326 326 332 331 331 328 327 326 325 325 326 326 329 330 333 334 332 329 324 319 314 310 308 304 299 292 284 278 276 272 266 260 257 252 252 254 238 233 231
Height
1476 1477 1476 1471 1467 1466 1462 1460 1457 1449 1443 1452 1458 1457 1453 1450 1453 1455 1456 1457 1459 1462 1466 1467 1470 1471 1471 1472 1470 1475 1481 1487 1491 1493 1495 1498 1500 1501 1503 1505 1505 1506 1506 1507
1477 1482 1472 1469 1468 1467 1464 1465 1461 1453 1448 1452 1458 1458 1452 1451 1452 1455 1458 1460 1461 1462 1467 1468 1468 1464 1469 1471 1466 1469 1477 1485 1491 1493 1495 1496 1498 1500 1501 1502 1502 1503 1503 1503
1480 1480 1471 1469 1468 1469 1468 1468 1467 1466 1459 1456 1459 1460 1453 1449 1451 1457 1464 1467 1470 1471 1471 1472 1471 1468 1470 1471 1468 1474 1477 1485 1490 1493 1495 1496 1497 1498 1499 1499 1499 1499 1500 1500
1474 1471 1470 1471 1471 1470 1474 1466 1466 1466 1469 1468 1460 1471 1455 1449 1455 1462 1468 1472 1476 1477 1480 1478 1477 1476 1478 1476 1478 1481 1485 1487 1489 1491 1493 1494 1495 1496 1497 1497 1497 1496 1496 1496
1479 1473 1472 1473 1470 1468 1469 1463 1464 1465 1467 1469 1463 1468 1461 1451 1462 1469 1474 1477 1480 1481 1483 1482 1481 1482 1483 1483 1483 1483 1485 1487 1488 1489 1491 1491 1493 1493 1493 1493 1494 1494 1493 1493
1478 1471 1468 1467 1465 1463 1463 1463 1462 1461 1469 1489 1488 1491 1473 1459 1464 1471 1476 1479 1481 1483 1484 1485 1486 1486 1485 1485 1484 1484 1485 1486 1486 1486 1487 1488 1489 1489 1489 1489 1490 1491 1491 1491
1486 1476 1468 1464 1466 1464 1466 1474 1483 1485 1495 1499 1492 1494 1480 1468 1467 1472 1479 1482 1483 1484 1486 1487 1488 1488 1487 1486 1485 1485 1484 1484 1483 1482 1483 1483 1484 1484 1484 1485 1486 1486 1487 1488
1494 1494 1471 1463 1466 1471 1469 1472 1487 1493 1486 1477 1479 1480 1482 1476 1478 1481 1483 1485 1485 1486 1487 1487 1488 1488 1487 1486 1485 1484 1483 1482 1482 1481 1481 1481 1480 1480 1480 1480 1481 1481 1482 1482
1486 1484 1465 1461 1461 1464 1470 1470 1465 1472 1470 1472 1466 1478 1484 1482 1485 1486 1487 1488 1489 1489 1489 1488 1488 1487 1487 1486 1484 1483 1482 1481 1480 1479 1479 1478 1477 1476 1476 1475 1476 1476 1476 1476
1472 1479 1467 1459 1457 1459 1462 1464 1470 1479 1489 1490 1473 1481 1490 1488 1490 1489 1491 1492 1493 1492 1491 1490 1489 1487 1486 1485 1483 1481 1480 1478 1477 1476 1475 1475 1473 1472 1471 1471 1470 1469 1469 1469
1471 1480 1473 1464 1468 1470 1467 1467 1469 1474 1480 1492 1494 1496 1487 1493 1493 1493 1493 1495 1495 1495 1493 1492 1489 1487 1485 1483 1482 1480 1478 1476 1475 1473 1471 1470 1468 1467 1466 1465 1464 1464 1463 1463
1476 1479 1483 1474 1466 1464 1466 1467 1471 1485 1487 1482 1487 1501 1490 1492 1493 1495 1496 1496 1496 1495 1494 1491 1489 1486 1483 1481 1479 1477 1475 1473 1471 1469 1468 1466 1464 1462 1460 1459 1458 1457 1456 1456
1485 1491 1496 1485 1481 1474 1470 1466 1467 1472 1479 1484 1493 1503 1493 1494 1494 1495 1496 1496 1495 1494 1492 1489 1486 1482 1479 1477 1475 1473 1471 1469 1467 1464 1462 1460 1458 1456 1455 1453 1451 1450 1449 1448
1486 1490 1494 1498 1484 1470 1469 1466 1467 1474 1486 1490 1490 1495 1493 1492 1493 1494 1495 1494 1492 1490 1487 1484 1480 1478 1475 1473 1471 1468 1466 1464 1462 1459 1457 1454 1453 1451 1449 1447 1445 1444 1442 1441
1484 1488 1485 1480 1470 1466 1467 1468 1472 1479 1485 1491 1491 1490 1489 1490 1493 1493 1493 1491 1488 1485 1482 1478 1476 1474 1472 1469 1466 1464 1461 1458 1456 1453 1451 1448 1446 1444 1442 1440 1439 1437 1436 1435
1488 1490 1487 1482 1470 1466 1471 1477 1481 1485 1487 1489 1490 1489 1486 1489 1491 1491 1490 1487 1484 1480 1476 1474 1472 1470 1467 1464 1461 1458 1455 1452 1449 1446 1444 1442 1440 1438 1436 1434 1432 1431 1429 1428
1492 1497 1496 1489 1472 1471 1490 1494 1494 1494 1492 1493 1493 1490 1488 1490 1491 1490 1487 1484 1479 1475 1474 1471 1468 1464 1461 1457 1454 1450 1447 1444 1442 1439 1436 1434 1432 1430 1429 1427 1426 1425 1423 1422
1497 1498 1496 1487 1482 1499 1505 1495 1496 1497 1494 1492 1490 1492 1493 1492 1490 1488 1485 1479 1476 1474 1470 1466 1462 1458 1454 1450 1446 1442 1439 1437 1434 1431 1428 1427 1425 1423 1421 1420 1418 1417 1417 1416
1491 1495 1497 1493 1494 1495 1499 1498 1500 1501 1497 1495 1497 1496 1494 1491 1487 1484 1481 1478 1475 1470 1465 1460 1455 1451 1446 1442 1438 1434 1430 1428 1425 1422 1420 1418 1416 1414 1412 1411 1410 1410 1409 1408
1489 1490 1492 1495 1503 1504 1507 1501 1500 1500 1495 1497 1498 1496 1493 1489 1483 1478 1477 1474 1468 1464 1459 1453 1447 1442 1437 1433 1429 1425 1421 1418 1415 1412 1410 1408 1406 1404 1403 1402 1401 1401 1401 1401
1498 1495 1497 1501 1504 1498 1505 1502 1502 1507 1506 1501 1499 1496 1493 1489 1485 1478 1472 1467 1462 1456 1451 1445 1439 1433 1429 1424 1420 1415 1411 1407 1404 1402 1399 1397 1395 1394 1393 1392 1392 1392 1393 1393
1503 1504 1508 1508 1510 1511 1505 1505 1508 1510 1504 1502 1498 1495 1490 1485 1479 1474 1467 1461 1455 1448 1442 1436 1430 1424 1420 1415 1409 1403 1399 1396 1393 1390 1387 1385 1384 1383 1383 1382 1382 1383 1384 1384
1503 1512 1513 1513 1515 1509 1508 1509 1508 1507 1504 1501 1497 1492 1487 1480 1474 1467 1461 1454 1448 1441 1435 1429 1422 1415 1410 1405 1399 1392 1387 1384 1380 1377 1374 1373 1372 1372 1372 1372 1373 1374 1375 1376
1508 1510 1510 1511 1507 1509 1510 1509 1508 1506 1503 1499 1495 1489 1483 1476 1469 1462 1455 1448 1441 1435 1428 1421 1414 1406 1399 1393 1387 1380 1375 1370 1367 1364 1362 1361 1360 1360 1361 1362 1364 1365 1367 1369
1508 1507 1511 1510 1510 1511 1509 1509 1507 1504 1500 1496 1491 1486 1480 1472 1465 1458 1450 1443 1436 1430 1422 1415 1407 1398 1389 1381 1374 1368 1363 1359 1355 1353 1351 1350 1350 1351 1352 1353 1355 1357 1359 1362
1507 1511 1515 1515 1514 1513 1510 1508 1505 1501 1497 1492 1486 1480 1475 1469 1461 1454 1447 1440 1433 1425 1416 1407 1399 1389 1380 1372 1364 1357 1352 1348 1345 1343 1342 1342 1342 1343 1344 1346 1348 1350 1353 1356